Location: Unspecified
(41.5516°N, 88.1098°W)
Time: 05:24:00
(UTC-05:00)

Resurs 1-4 Rocket - Visible Passes

Search period start: 04 September 2015 00:00
Search period end: 14 September 2015 00:00
Orbit: 799 x 815 km, 98.4° (Epoch: 02 September)

Date Brightness Start Highest point End Pass type
(mag) Time Alt. Az. Time Alt. Az. Time Alt. Az.
04 Sep 4.7 02:47:22 10° ENE 02:49:12 12° E 02:51:21 10° ESE visible
04 Sep 2.0 04:24:31 10° NNE 04:29:49 82° WNW 04:32:33 30° SSW visible
05 Sep 2.5 04:00:04 10° NNE 04:05:18 61° E 04:07:40 32° SSE visible
05 Sep 3.6 05:41:07 10° NNW 05:44:46 19° WNW 05:48:14 10° WSW visible
06 Sep 3.4 03:35:52 10° NNE 03:40:41 36° E 03:42:47 26° SE visible
06 Sep 3.0 05:15:56 10° N 05:20:28 29° WNW 05:23:51 15° WSW visible
07 Sep 4.1 03:12:00 10° NE 03:15:58 22° E 03:17:53 18° ESE visible
07 Sep 2.4 04:51:03 10° N 04:56:07 47° WNW 04:58:58 24° SW visible
08 Sep 4.6 02:48:58 10° ENE 02:51:06 13° E 02:53:00 11° ESE visible
08 Sep 2.0 04:26:23 10° N 04:31:41 78° WNW 04:34:05 34° SSW visible
09 Sep 2.4 04:01:55 10° NNE 04:07:11 64° E 04:09:12 37° SSE visible
09 Sep 3.6 05:43:05 10° NNW 05:46:36 18° WNW 05:49:57 10° WSW visible
10 Sep 3.3 03:37:41 10° NNE 03:42:35 38° E 03:44:18 30° SE visible
10 Sep 3.1 05:17:51 10° N 05:22:20 28° WNW 05:25:23 16° WSW visible
11 Sep 4.0 03:13:46 10° NE 03:17:52 23° E 03:19:25 20° ESE visible
11 Sep 2.5 04:52:56 10° N 04:57:59 45° WNW 05:00:29 26° SW visible
12 Sep 4.6 02:50:36 10° ENE 02:53:01 13° E 02:54:31 12° ESE visible
12 Sep 2.0 04:28:15 10° N 04:33:34 75° WNW 04:35:36 38° SSW visible
13 Sep 2.3 04:03:46 10° NNE 04:09:04 67° E 04:10:42 43° SSE visible
13 Sep 3.7 05:45:02 10° NNW 05:48:27 17° WNW 05:51:40 10° W visible
